Stündliche Wetter Celej

Heute, 16 Januar, Samstag

Zeit Temperatur Niederschläge Wind Luftdruck Luftfeuchtigkeit
00:00 -16°C° 0 mm 3 m/S 748 mmHg 91%
01:00 -15°C° 0 mm 3 m/S 747 mmHg 92%
02:00 -15°C° 0 mm 3 m/S 747 mmHg 93%
03:00 -15°C° 0 mm 3 m/S 747 mmHg 94%
04:00 -15°C° 0 mm 3 m/S 747 mmHg 94%
05:00 -15°C° 0 mm 3 m/S 747 mmHg 95%
06:00 -15°C° 0 mm 3 m/S 747 mmHg 95%
07:00 -14°C° 0 mm 2 m/S 747 mmHg 96%
08:00 -14°C° 0 mm 3 m/S 747 mmHg 94%
09:00 -12°C° 0 mm 3 m/S 746 mmHg 93%
10:00 -10°C° 0 mm 3 m/S 746 mmHg 92%
11:00 -10°C° 0.1 mm 4 m/S 745 mmHg 92%
12:00 -10°C° 0.1 mm 5 m/S 744 mmHg 93%
13:00 -9°C° 0.1 mm 6 m/S 744 mmHg 93%
14:00 -9°C° 0.4 mm 7 m/S 743 mmHg 93%
15:00 -9°C° 0.4 mm 7 m/S 742 mmHg 93%
16:00 -10°C° 0.4 mm 8 m/S 742 mmHg 93%
17:00 -10°C° 0.5 mm 8 m/S 742 mmHg 93%
18:00 -11°C° 0.5 mm 7 m/S 741 mmHg 93%
19:00 -12°C° 0.5 mm 7 m/S 741 mmHg 93%
20:00 -12°C° 0 mm 6 m/S 742 mmHg 92%
21:00 -14°C° 0 mm 5 m/S 742 mmHg 92%
22:00 -16°C° 0 mm 4 m/S 742 mmHg 92%
23:00 -17°C° 0 mm 4 m/S 743 mmHg 92%

Morgen, 17 Januar, Sonntag

Zeit Temperatur Niederschläge Wind Luftdruck Luftfeuchtigkeit
00:00 -17°C° 0 mm 4 m/S 743 mmHg 93%
01:00 -17°C° 0 mm 3 m/S 743 mmHg 94%
02:00 -17°C° 0 mm 3 m/S 744 mmHg 94%
03:00 -17°C° 0 mm 3 m/S 744 mmHg 95%
04:00 -16°C° 0 mm 2 m/S 745 mmHg 95%
05:00 -17°C° 0 mm 2 m/S 745 mmHg 96%
06:00 -17°C° 0 mm 2 m/S 746 mmHg 96%
07:00 -17°C° 0 mm 2 m/S 746 mmHg 96%
08:00 -17°C° 0 mm 2 m/S 747 mmHg 95%
09:00 -16°C° 0 mm 2 m/S 747 mmHg 94%
10:00 -16°C° 0 mm 2 m/S 748 mmHg 93%
11:00 -15°C° 0 mm 2 m/S 748 mmHg 91%
12:00 -12°C° 0 mm 1 m/S 748 mmHg 89%
13:00 -12°C° 0 mm 1 m/S 749 mmHg 87%
14:00 -12°C° 0 mm 1 m/S 749 mmHg 89%
15:00 -15°C° 0 mm 2 m/S 749 mmHg 92%
16:00 -16°C° 0 mm 2 m/S 749 mmHg 94%
17:00 -16°C° 0 mm 2 m/S 749 mmHg 94%
18:00 -14°C° 0 mm 1 m/S 750 mmHg 94%
19:00 -15°C° 0 mm 1 m/S 750 mmHg 94%
20:00 -15°C° 0 mm 1 m/S 750 mmHg 93%
21:00 -15°C° 0 mm 1 m/S 750 mmHg 92%
22:00 -15°C° 0 mm 1 m/S 750 mmHg 91%
23:00 -15°C° 0 mm 1 m/S 750 mmHg 91%

übermorgen, 18 Januar, Montag

Zeit Temperatur Niederschläge Wind Luftdruck Luftfeuchtigkeit
00:00 -16°C° 0 mm 1 m/S 750 mmHg 91%
01:00 -16°C° 0 mm 1 m/S 750 mmHg 91%
02:00 -16°C° 0 mm 1 m/S 750 mmHg 91%
03:00 -16°C° 0 mm 1 m/S 750 mmHg 91%
04:00 -17°C° 0 mm 1 m/S 750 mmHg 91%
05:00 -17°C° 0 mm 1 m/S 750 mmHg 91%
06:00 -17°C° 0 mm 1 m/S 750 mmHg 91%
07:00 -17°C° 0 mm 0 m/S 751 mmHg 91%
08:00 -16°C° 0 mm 1 m/S 751 mmHg 89%
09:00 -15°C° 0 mm 1 m/S 751 mmHg 87%
10:00 -14°C° 0 mm 1 m/S 751 mmHg 86%
11:00 -13°C° 0 mm 1 m/S 751 mmHg 85%
12:00 -12°C° 0 mm 1 m/S 751 mmHg 84%
13:00 -13°C° 0 mm 2 m/S 750 mmHg 83%
14:00 -12°C° 0 mm 1 m/S 750 mmHg 86%
15:00 -12°C° 0 mm 1 m/S 750 mmHg 88%
16:00 -13°C° 0 mm 1 m/S 750 mmHg 91%
17:00 -13°C° 0 mm 1 m/S 750 mmHg 91%
18:00 -13°C° 0 mm 1 m/S 750 mmHg 91%
19:00 -13°C° 0 mm 1 m/S 750 mmHg 91%
20:00 -15°C° 0 mm 2 m/S 750 mmHg 91%
21:00 -15°C° 0 mm 2 m/S 749 mmHg 92%
22:00 -15°C° 0 mm 2 m/S 749 mmHg 92%
23:00 -14°C° 0 mm 2 m/S 749 mmHg 91%

19 Januar, Dienstag

Zeit Temperatur Niederschläge Wind Luftdruck Luftfeuchtigkeit
00:00 -14°C° 0 mm 2 m/S 748 mmHg 91%
01:00 -15°C° 0 mm 3 m/S 748 mmHg 91%
02:00 -14°C° 0 mm 3 m/S 748 mmHg 92%
03:00 -13°C° 0 mm 3 m/S 747 mmHg 93%
04:00 -12°C° 0 mm 3 m/S 747 mmHg 94%
05:00 -12°C° 0.2 mm 3 m/S 747 mmHg 94%
06:00 -10°C° 0.2 mm 3 m/S 747 mmHg 95%
07:00 -9°C° 0.2 mm 3 m/S 746 mmHg 95%
08:00 -8°C° 0.3 mm 3 m/S 746 mmHg 95%
09:00 -7°C° 0.3 mm 4 m/S 746 mmHg 96%
10:00 -5°C° 0.3 mm 4 m/S 746 mmHg 96%
11:00 -4°C° 0.1 mm 4 m/S 746 mmHg 97%
12:00 -3°C° 0.1 mm 4 m/S 746 mmHg 97%
13:00 -2°C° 0.1 mm 4 m/S 745 mmHg 98%
14:00 -2°C° 0 mm 4 m/S 745 mmHg 97%
15:00 -2°C° 0 mm 4 m/S 745 mmHg 97%
16:00 -1°C° 0 mm 3 m/S 745 mmHg 96%
17:00 -3°C° 0 mm 4 m/S 745 mmHg 95%
18:00 -3°C° 0 mm 4 m/S 744 mmHg 95%
19:00 -4°C° 0 mm 4 m/S 744 mmHg 94%
20:00 -4°C° 0 mm 4 m/S 744 mmHg 93%
21:00 -6°C° 0 mm 5 m/S 744 mmHg 93%
22:00 -6°C° 0 mm 6 m/S 743 mmHg 93%
23:00 -6°C° 0.2 mm 6 m/S 743 mmHg 94%

20 Januar, Mittwoch

Zeit Temperatur Niederschläge Wind Luftdruck Luftfeuchtigkeit
00:00 -6°C° 0.2 mm 6 m/S 743 mmHg 94%
01:00 -5°C° 0.2 mm 6 m/S 743 mmHg 95%
02:00 -5°C° 0.4 mm 6 m/S 742 mmHg 96%
03:00 -5°C° 0.4 mm 6 m/S 742 mmHg 96%
04:00 -5°C° 0.4 mm 6 m/S 741 mmHg 96%
05:00 -4°C° 0.3 mm 6 m/S 741 mmHg 96%
06:00 -4°C° 0.3 mm 5 m/S 741 mmHg 96%
07:00 -2°C° 0.3 mm 5 m/S 741 mmHg 96%
08:00 -2°C° 0 mm 5 m/S 741 mmHg 96%
09:00 -1°C° 0 mm 5 m/S 741 mmHg 95%
10:00 -1°C° 0 mm 5 m/S 741 mmHg 95%
11:00 -1°C° 0 mm 5 m/S 741 mmHg 96%
12:00 -2°C° 0 mm 6 m/S 741 mmHg 96%
13:00 -2°C° 0 mm 6 m/S 741 mmHg 97%
14:00 -2°C° 0 mm 6 m/S 741 mmHg 94%
15:00 -2°C° 0 mm 6 m/S 741 mmHg 92%
16:00 -2°C° 0 mm 6 m/S 740 mmHg 89%
17:00 -2°C° 0 mm 6 m/S 740 mmHg 88%
18:00 -2°C° 0 mm 6 m/S 740 mmHg 87%
19:00 -2°C° 0 mm 6 m/S 740 mmHg 86%
20:00 -2°C° 0 mm 6 m/S 740 mmHg 85%
21:00 -2°C° 0 mm 6 m/S 740 mmHg 85%
22:00 -3°C° 0 mm 6 m/S 740 mmHg 85%
23:00 -3°C° 0 mm 6 m/S 740 mmHg 85%

21 Januar, Donnerstag

Zeit Temperatur Niederschläge Wind Luftdruck Luftfeuchtigkeit
00:00 -3°C° 0 mm 6 m/S 740 mmHg 85%
01:00 -3°C° 0 mm 6 m/S 740 mmHg 85%
02:00 -3°C° 0 mm 6 m/S 740 mmHg 85%
03:00 -3°C° 0 mm 6 m/S 740 mmHg 86%
04:00 -2°C° 0 mm 5 m/S 740 mmHg 86%
05:00 -2°C° 0 mm 5 m/S 739 mmHg 86%
06:00 -1°C° 0 mm 5 m/S 739 mmHg 86%
07:00 -1°C° 0 mm 5 m/S 739 mmHg 86%
08:00 -1°C° 0 mm 5 m/S 739 mmHg 89%
09:00 -1°C° 0 mm 4 m/S 739 mmHg 91%
10:00 -1°C° 0 mm 4 m/S 738 mmHg 93%
11:00 0°C° 0 mm 4 m/S 738 mmHg 95%
12:00 0°C° 0 mm 4 m/S 737 mmHg 97%
13:00 0°C° 0 mm 4 m/S 737 mmHg 99%
14:00 0°C° 0 mm 4 m/S 737 mmHg 97%
15:00 0°C° 0 mm 5 m/S 736 mmHg 96%
16:00 0°C° 0 mm 5 m/S 736 mmHg 94%
17:00 0°C° 0 mm 4 m/S 737 mmHg 93%
18:00 -1°C° 0 mm 4 m/S 737 mmHg 91%
19:00 -1°C° 0 mm 4 m/S 738 mmHg 90%
20:00 -1°C° 0 mm 4 m/S 738 mmHg 89%
21:00 -1°C° 0 mm 4 m/S 739 mmHg 88%
22:00 -2°C° 0 mm 5 m/S 740 mmHg 87%
23:00 -2°C° 0 mm 4 m/S 740 mmHg 87%
Mehr zeigen

Wir brauchen deine Erlaubnis

Meteoprog und unser Service Anbieter werden persönliche Daten aufbewahren, so wie Cookies, Geräte Bezeichnung oder ähnliche Technologien von deinem Gerät und Prozess, so wie Persönliche Daten Inhalte und Werbungen, genauso wie social Media und den Verkehr zu analysieren.

  • Aufbewahrung und/oder Zugang zu deiner Geräte Informationen.

    Cookies, Geräte Bezeichnung oder andere Informationen, können aufbewahrt oder Zugang zu deinem Gerät erhalten, für den Grund, der oben angegeben wird.

  • Personalisierte Werbung und Inhalte, Messungen, Einblick in das Publikum und Produkt Entwicklung.

    Werbungen und Inhalte können personalisiert werden, basierend auf ein Profil. Mehr Daten können besser personalisierte Werbungen und Inhalte hinzufügen. Werbung und Inhalte können gezeigt und gemessen werden. Einblicke über das Publikum, welche die Werbung gesehen haben und den Inhalt, können abgeleitet werden. So wie Daten können genutzt werden, um es zu verbessern oder die Benutzer Erfahrung zu verbessern das System und die Software.

Wenn du “Ich stimme zu” klickst, erlaubst du uns, die Cookies zu benutzen die Geräte Bezeichnung, den Web oder ähnliche Technologien zu benutzen. Deine Settings, können in deinem Gerät bei deinem Browser geändert werden.

Für den bestimmten Zweck, berechtigten Interessen beruhen darauf, mehr als auf den Inhalt. Du kannst mehr darüber in unseren Privaten und Cookie Politik lesen.